Location: Centerville
(32.8776°N, 96.6203°W)
Time: 04:12:10
(UTC+00:00)

CZ-2D R/B - Pass Details

Date: 17 June 2021
Orbit: 791 x 845 km, 98.7° (Epoch: 29 July)

Event Time Altitude Azimuth Distance (km) Brightness Sun altitude
Rises 07:45:07 0° 15° (NNE) 3,294 6.4 -30.8°
Reaches altitude 10° 07:47:27 10° 18° (NNE) 2,360 5.4 -30.6°
Enters shadow 07:51:52 60° 52° (NE) 908 2.5 -30.2°
